KG7EW Weather Reports


time (UTC)temp
C
wind
direction
speed
KPH
gust
KPH
rain 1hr
cm
rain 24hr
cm
rain mn
cm
humidity
%
barometer
mb
20260509055003 11 349 0.0 0.0 0.00 0.00 0.00 54 1005.6
20260509054003 11 349 0.0 0.0 0.00 0.00 0.00 55 1005.1
20260509053024 11 54 0.0 0.0 0.00 0.00 0.00 52 1005.1
20260509052003 12 52 0.0 0.0 0.00 0.00 0.00 52 1004.9
20260509051045 12 336 0.0 0.0 0.00 0.00 0.00 47 1005.0
20260509050025 12 336 0.0 0.0 0.00 0.00 0.00 52 1005.0
20260509045002 13 336 0.0 0.0 0.00 0.00 0.00 51 1005.0
20260509044002 13 336 0.0 0.0 0.00 0.00 0.00 50 1004.6
20260509043002 13 336 0.0 0.0 0.00 0.00 0.00 50 1004.6
20260509042002 15 281 0.0 0.0 0.00 0.00 0.00 32 1004.1
20260509041003 15 281 0.0 0.0 0.00 0.00 0.00 34 1004.6
20260509040002 16 252 0.0 0.0 0.00 0.00 0.00 30 1004.6
20260509034002 16 256 0.0 0.0 0.00 0.00 0.00 32 1004.6
20260509033002 16 295 0.0 0.0 0.00 0.00 0.00 34 1004.6
20260509032024 16 277 0.0 0.0 0.00 0.00 0.00 36 1003.8
20260509031023 17 276 0.0 0.0 0.00 0.00 0.00 37 1004.3
20260509030003 17 277 0.0 0.0 0.00 0.00 0.00 34 1004.3
20260509025003 18 277 0.0 0.0 0.00 0.00 0.00 33 1003.9
20260509024024 18 277 0.0 0.0 0.00 0.00 0.00 30 1003.5
20260509023002 18 276 0.0 0.0 0.00 0.00 0.00 34 1003.5
20260509022003 18 273 0.0 0.0 0.00 0.00 0.00 36 1003.0
20260509021003 20 271 0.0 0.0 0.00 0.00 0.00 40 1003.4
20260509020003 20 267 0.0 0.0 0.00 0.00 0.00 39 1003.4
20260509015002 21 273 0.0 0.0 0.00 0.00 0.00 37 1002.7
20260509014023 22 268 0.0 1.6 0.00 0.00 0.00 32 1002.7
20260509013003 22 268 0.0 1.6 0.00 0.00 0.00 29 1002.7
20260509012003 23 270 0.0 0.0 0.00 0.00 0.00 30 1002.4
20260509011002 23 272 1.6 3.2 0.00 0.00 0.00 28 1003.3
20260509010023 25 273 0.0 0.0 0.00 0.00 0.00 24 1003.3
20260509005003 25 273 0.0 4.8 0.00 0.00 0.00 21 1002.9
20260509004003 25 289 0.0 1.6 0.00 0.00 0.00 22 1003.3
20260509003002 25 295 0.0 9.7 0.00 0.00 0.00 21 1003.3
20260509002002 25 251 0.0 8.0 0.00 0.00 0.00 22 1003.4
20260509001003 25 273 0.0 4.8 0.00 0.00 0.00 23 1003.9
20260509000003 25 280 0.0 3.2 0.00 0.00 0.00 23 1003.9
20260508235002 24 36 0.0 9.7 0.00 0.00 0.00 27 1003.8
20260508234023 25 33 4.8 9.7 0.00 0.00 0.00 25 1003.8
20260508233003 25 357 0.0 11.3 0.00 0.00 0.00 23 1003.8
20260508232003 25 344 3.2 12.9 0.00 0.00 0.00 24 1003.6
20260508231002 25 254 1.6 9.7 0.00 0.00 0.00 24 1003.5
20260508230003 25 103 0.0 12.9 0.00 0.00 0.00 26 1003.5
20260508225003 25 322 0.0 4.8 0.00 0.00 0.00 22 1003.7
20260508224003 24 288 0.0 3.2 0.00 0.00 0.00 23 1003.9
20260508223002 24 229 0.0 9.7 0.00 0.00 0.00 21 1003.9
20260508222003 24 122 1.6 12.9 0.00 0.00 0.00 23 1004.3
20260508221002 24 202 0.0 0.0 0.00 0.00 0.00 21 1004.4
20260508220002 25 252 0.0 12.9 0.00 0.00 0.00 20 1004.4
20260508215002 25 230 3.2 17.7 0.00 0.00 0.00 23 1004.9
20260508214024 24 343 1.6 19.3 0.00 0.00 0.00 22 1004.7
20260508213003 25 259 1.6 22.5 0.00 0.00 0.00 29 1004.7
20260508212002 24 287 1.6 17.7 0.00 0.00 0.00 25 1005.2
20260508211024 24 184 0.0 6.4 0.00 0.00 0.00 22 1004.9
20260508210003 24 271 0.0 17.7 0.00 0.00 0.00 27 1004.9
20260508205002 24 269 0.0 9.7 0.00 0.00 0.00 26 1005.3
20260508204002 24 232 8.0 19.3 0.00 0.00 0.00 24 1005.4
20260508203003 24 266 0.0 20.9 0.00 0.00 0.00 24 1005.4
20260508202002 24 245 6.4 22.5 0.00 0.00 0.00 24 1005.7
20260508201003 23 326 1.6 30.6 0.00 0.00 0.00 21 1005.7
20260508200003 23 211 1.6 22.5 0.00 0.00 0.00 26 1005.7
20260508195003 23 248 4.8 20.9 0.00 0.00 0.00 28 1006.0
20260508194003 23 228 9.7 22.5 0.00 0.00 0.00 23 1006.2
20260508193003 23 255 1.6 12.9 0.00 0.00 0.00 27 1006.2
20260508192003 23 256 0.0 25.7 0.00 0.00 0.00 21 1006.3
20260508191002 23 301 0.0 16.1 0.00 0.00 0.00 26 1006.1
20260508190003 23 120 0.0 16.1 0.00 0.00 0.00 22 1006.1
20260508185002 23 238 1.6 20.9 0.00 0.00 0.00 27 1006.5
20260508184002 22 284 1.6 19.3 0.00 0.00 0.00 28 1006.6
20260508183003 22 294 1.6 11.3 0.00 0.00 0.00 27 1006.6
20260508182003 22 250 0.0 9.7 0.00 0.00 0.00 25 1007.0
20260508181002 21 240 8.0 17.7 0.00 0.00 0.00 27 1006.9
20260508180003 21 79 0.0 1.6 0.00 0.00 0.00 29 1006.9
20260508175002 21 106 0.0 6.4 0.00 0.00 0.00 29 1007.6
20260508174002 20 57 1.6 4.8 0.00 0.00 0.00 29 1007.4
20260508173004 20 82 0.0 0.0 0.00 0.00 0.00 37 1007.4
20260508172002 20 98 0.0 3.2 0.00 0.00 0.00 37 1007.3
20260508171003 19 76 0.0 6.4 0.00 0.00 0.00 38 1007.4
20260508170002 19 91 0.0 8.0 0.00 0.00 0.00 37 1007.4
20260508165002 18 61 0.0 1.6 0.00 0.00 0.00 36 1007.6
20260508164002 18 81 0.0 0.0 0.00 0.00 0.00 44 1007.7
20260508163003 18 92 0.0 0.0 0.00 0.00 0.00 38 1007.7
20260508162002 17 54 0.0 8.0 0.00 0.00 0.00 43 1008.0
20260508161002 17 96 0.0 0.0 0.00 0.00 0.00 47 1007.7
20260508160003 16 76 0.0 0.0 0.00 0.00 0.00 49 1007.7
20260508155003 16 116 0.0 3.2 0.00 0.00 0.00 44 1007.8
20260508154003 15 117 1.6 8.0 0.00 0.00 0.00 45 1008.1
20260508153002 15 123 0.0 0.0 0.00 0.00 0.00 47 1008.1
20260508152002 15 99 0.0 0.0 0.00 0.00 0.00 51 1007.9
20260508151002 14 106 0.0 0.0 0.00 0.00 0.00 56 1008.0
20260508150003 13 100 0.0 0.0 0.00 0.00 0.00 57 1008.0
20260508145002 13 100 0.0 0.0 0.00 0.00 0.00 54 1008.4
20260508144024 12 19 0.0 0.0 0.00 0.00 0.00 54 1008.2
20260508143003 12 14 0.0 0.0 0.00 0.00 0.00 61 1008.2
20260508142002 11 17 0.0 0.0 0.00 0.00 0.00 60 1008.3
20260508141003 11 13 0.0 0.0 0.00 0.00 0.00 62 1007.0
20260508140003 11 14 0.0 0.0 0.00 0.00 0.00 66 1007.0
20260508135003 10 13 0.0 0.0 0.00 0.00 0.00 65 1006.9
20260508134003 10 14 0.0 0.0 0.00 0.00 0.00 66 1007.3
20260508133003 8 19 0.0 0.0 0.00 0.00 0.00 66 1007.3
20260508132003 7 19 0.0 0.0 0.00 0.00 0.00 67 1007.7
20260508131002 6 256 0.0 0.0 0.00 0.00 0.00 70 1006.7
20260508130003 6 253 0.0 0.0 0.00 0.00 0.00 71 1006.7
20260508125002 5 253 0.0 0.0 0.00 0.00 0.00 72 1006.9
20260508124003 5 256 0.0 0.0 0.00 0.00 0.00 72 1006.6
20260508123025 5 252 0.0 0.0 0.00 0.00 0.00 72 1006.6
20260508122003 5 257 0.0 0.0 0.00 0.00 0.00 72 1006.4
20260508121023 5 253 0.0 0.0 0.00 0.00 0.00 72 1006.0
20260508120002 5 253 0.0 0.0 0.00 0.00 0.00 72 1006.0
20260508115003 5 253 0.0 0.0 0.00 0.00 0.00 72 1005.8
20260508114002 5 254 0.0 0.0 0.00 0.00 0.00 71 1005.4
20260508113002 6 254 0.0 0.0 0.00 0.00 0.00 71 1005.4
20260508112003 6 254 0.0 0.0 0.00 0.00 0.00 70 1005.4
20260508111002 6 254 0.0 0.0 0.00 0.00 0.00 70 1005.2
20260508110003 6 254 0.0 0.0 0.00 0.00 0.00 69 1005.2
20260508105024 6 253 0.0 0.0 0.00 0.00 0.00 69 1005.2
20260508104002 6 254 0.0 0.0 0.00 0.00 0.00 71 1004.9
20260508103003 6 278 0.0 0.0 0.00 0.00 0.00 70 1004.9
20260508102004 6 278 0.0 0.0 0.00 0.00 0.00 70 1004.8
20260508101003 6 280 0.0 0.0 0.00 0.00 0.00 72 1005.0
20260508100004 6 280 0.0 0.0 0.00 0.00 0.00 73 1005.0
20260508095002 6 280 0.0 0.0 0.00 0.00 0.00 73 1005.1
20260508094003 6 280 0.0 0.0 0.00 0.00 0.00 73 1005.1
20260508093024 6 300 0.0 0.0 0.00 0.00 0.00 72 1005.1
20260508091003 6 300 0.0 0.0 0.00 0.00 0.00 72 1005.3
20260508090003 6 300 0.0 0.0 0.00 0.00 0.00 72 1005.3
20260508085002 6 301 0.0 0.0 0.00 0.00 0.00 71 1005.3
20260508084024 6 301 0.0 0.0 0.00 0.00 0.00 72 1005.3
20260508083002 6 298 0.0 0.0 0.00 0.00 0.00 72 1005.3
20260508082003 6 300 0.0 0.0 0.00 0.00 0.00 71 1005.5
20260508081003 6 300 0.0 0.0 0.00 0.00 0.00 72 1005.8
20260508080002 6 300 0.0 0.0 0.00 0.00 0.00 72 1005.8
20260508075024 6 301 0.0 0.0 0.00 0.00 0.00 72 1005.7
20260508074002 7 55 0.0 0.0 0.00 0.00 0.00 70 1005.7
20260508073002 7 302 0.0 0.0 0.00 0.00 0.00 69 1005.7
20260508072003 7 302 0.0 0.0 0.00 0.00 0.00 68 1005.8
20260508071002 7 304 0.0 0.0 0.00 0.00 0.00 68 1005.4
20260508070003 7 301 0.0 0.0 0.00 0.00 0.00 66 1005.4
20260508065003 8 302 0.0 0.0 0.00 0.00 0.00 65 1005.5
20260508064002 8 302 0.0 0.0 0.00 0.00 0.00 65 1005.4
20260508063023 8 302 0.0 0.0 0.00 0.00 0.00 65 1005.4
20260508062024 8 301 0.0 0.0 0.00 0.00 0.00 65 1005.0
20260508061003 8 302 0.0 0.0 0.00 0.00 0.00 64 1005.3
20260508060002 8 301 0.0 0.0 0.00 0.00 0.00 64 1005.3